EW2328 Weather Reports


Display with metric or nautical units.
time (UTC)temp
F
wind
direction
speed
MPH
gust
MPH
rain 1hr
in
rain 24hr
in
rain mn
in
humidity
%
barometer
mb
20260902203518 95 0.0 0.0 0.00 0.00 0.00 67 1017.0
20260902202519 95 0.0 0.0 0.00 0.00 0.00 68 1017.2
20260902201520 95 0.0 1.0 0.00 0.00 0.00 69 1017.2
20260902200518 95 0.0 2.0 0.00 0.00 0.00 68 1017.2
20260902195518 95 0.0 2.0 0.00 0.00 0.00 70 1017.3
20260902194518 95 0.0 0.0 0.00 0.00 0.00 69 1017.4
20260902193518 96 0.0 0.0 0.00 0.00 0.00 67 1017.6
20260902192519 96 0.0 0.0 0.00 0.00 0.00 68 1017.8
20260902191539 95 0.0 0.0 0.00 0.00 0.00 67 1017.8
20260902190538 96 0.0 1.0 0.00 0.00 0.00 65 1017.9
20260902185518 96 0.0 0.0 0.00 0.00 0.00 67 1017.9
20260902184518 96 0.0 0.0 0.00 0.00 0.00 65 1017.9
20260902183519 96 0.0 0.0 0.00 0.00 0.00 67 1018.1
20260902182518 97 0.0 0.0 0.00 0.00 0.00 65 1018.1
20260902181518 98 0.0 0.0 0.00 0.00 0.00 66 1018.2
20260902180518 97 0.0 3.0 0.00 0.00 0.00 66 1018.2
20260902175518 98 0.0 1.0 0.00 0.00 0.00 66 1018.3
20260902174539 98 0.0 0.0 0.00 0.00 0.00 67 1018.4
20260902173518 98 0.0 0.0 0.00 0.00 0.00 67 1018.7
20260902172519 98 0.0 2.0 0.00 0.00 0.00 69 1018.8
20260902171518 97 0.0 0.0 0.00 0.00 0.00 70 1018.9
20260902170519 96 0.0 1.0 0.00 0.00 0.00 69 1018.9
20260902165518 96 0.0 1.0 0.00 0.00 0.00 72 1019.1
20260902164519 95 0.0 0.0 0.00 0.00 0.00 73 1019.1
20260902163518 93 0.0 1.0 0.00 0.00 0.00 74 1019.1
20260902162519 94 0.0 0.0 0.00 0.00 0.00 74 1019.2
20260902161559 93 0.0 0.0 0.00 0.00 0.00 75 1019.2
20260902160518 93 0.0 4.0 0.00 0.00 0.00 76 1019.3
20260902155519 92 0.0 2.0 0.00 0.00 0.00 75 1019.2
20260902154519 93 0.0 0.0 0.00 0.00 0.00 76 1019.3
20260902153519 92 0.0 1.0 0.00 0.00 0.00 74 1019.5
20260902152519 92 0.0 0.0 0.00 0.00 0.00 75 1019.6
20260902151519 92 0.0 0.0 0.00 0.00 0.00 76 1019.6
20260902150519 91 0.0 0.0 0.00 0.00 0.00 77 1019.6
20260902145518 90 0.0 0.0 0.00 0.00 0.00 79 1019.7
20260902144519 89 0.0 0.0 0.00 0.00 0.00 79 1019.6
20260902143518 88 0.0 0.0 0.00 0.00 0.00 80 1019.5
20260902142559 88 0.0 0.0 0.00 0.00 0.00 80 1019.5
20260902141518 87 0.0 0.0 0.00 0.00 0.00 81 1019.5
20260902140518 86 0.0 0.0 0.00 0.00 0.00 82 1019.3
20260902135518 85 0.0 0.0 0.00 0.00 0.00 83 1019.5
20260902134518 84 0.0 0.0 0.00 0.00 0.00 83 1019.4
20260902133518 82 0.0 0.0 0.00 0.00 0.00 83 1019.3
20260902132518 82 0.0 0.0 0.00 0.00 0.00 84 1019.3
20260902131518 81 0.0 0.0 0.00 0.00 0.00 84 1019.3
20260902130519 80 0.0 0.0 0.00 0.00 0.00 84 1019.3
20260902125518 80 0.0 0.0 0.00 0.00 0.00 84 1019.2
20260902124519 79 0.0 0.0 0.00 0.00 0.00 85 1019.2
20260902123518 78 0.0 0.0 0.00 0.00 0.00 85 1019.1
20260902122518 78 0.0 0.0 0.00 0.00 0.00 85 1019.0
20260902121518 77 0.0 0.0 0.00 0.00 0.00 86 1019.0
20260902120518 77 0.0 0.0 0.00 0.00 0.00 86 1019.0
20260902115538 76 0.0 0.0 0.00 0.00 0.00 86 1018.7
20260902114518 76 0.0 0.0 0.00 0.00 0.00 87 1018.7
20260902113518 76 0.0 0.0 0.00 0.00 0.00 87 1018.5
20260902112518 76 0.0 0.0 0.00 0.00 0.00 87 1018.4
20260902111518 76 0.0 0.0 0.00 0.00 0.00 87 1018.4
20260902110518 76 0.0 0.0 0.00 0.00 0.00 87 1018.3
20260902105518 76 0.0 0.0 0.00 0.00 0.00 87 1018.4
20260902104538 76 0.0 0.0 0.00 0.00 0.00 87 1018.5
20260902103518 76 0.0 0.0 0.00 0.00 0.00 87 1018.4
20260902102518 76 0.0 0.0 0.00 0.00 0.00 86 1018.4
20260902101518 76 0.0 0.0 0.00 0.00 0.00 86 1018.3
20260902100518 76 0.0 0.0 0.00 0.00 0.00 86 1018.4
20260902095518 76 0.0 0.0 0.00 0.00 0.00 86 1018.2
20260902094518 76 0.0 0.0 0.00 0.00 0.00 86 1018.3
20260902093538 76 0.0 0.0 0.00 0.00 0.00 86 1018.3
20260902092519 76 0.0 0.0 0.00 0.00 0.00 86 1018.3
20260902091518 76 0.0 0.0 0.00 0.00 0.00 86 1018.2
20260902090518 76 0.0 0.0 0.00 0.00 0.00 86 1018.2
20260902085518 76 0.0 0.0 0.00 0.00 0.00 86 1018.1
20260902084518 76 0.0 0.0 0.00 0.00 0.00 86 1018.0
20260902083518 76 0.0 0.0 0.00 0.00 0.00 86 1017.8
20260902082558 76 0.0 0.0 0.00 0.00 0.00 87 1017.8
20260902081518 76 0.0 0.0 0.00 0.00 0.00 87 1017.7
20260902080518 76 0.0 0.0 0.00 0.00 0.00 87 1017.7
20260902075538 76 0.0 0.0 0.00 0.00 0.00 87 1017.7
20260902074518 76 0.0 0.0 0.00 0.00 0.00 87 1017.6
20260902073538 76 0.0 0.0 0.00 0.00 0.00 87 1017.7
20260902072518 76 0.0 0.0 0.00 0.00 0.00 87 1017.7
20260902071518 76 0.0 0.0 0.00 0.00 0.00 87 1017.6
20260902070538 76 0.0 0.0 0.00 0.00 0.00 87 1017.6
20260902065538 76 0.0 0.0 0.00 0.00 0.00 87 1017.6
20260902064518 76 0.0 0.0 0.00 0.00 0.00 87 1017.7
20260902063518 77 0.0 0.0 0.00 0.00 0.00 87 1017.7
20260902062518 77 0.0 0.0 0.00 0.00 0.00 86 1017.7
20260902061539 78 0.0 0.0 0.00 0.00 0.00 86 1017.8
20260902060538 78 0.0 0.0 0.00 0.00 0.00 86 1017.8
20260902055658 78 0.0 0.0 0.00 0.00 0.00 86 1017.7
20260902054519 78 0.0 0.0 0.00 0.00 0.00 86 1017.8
20260902053519 78 0.0 0.0 0.00 0.00 0.00 86 1017.8
20260902052518 78 0.0 0.0 0.00 0.00 0.00 86 1017.8
20260902051518 78 0.0 0.0 0.00 0.00 0.00 86 1017.8
20260902050519 78 0.0 0.0 0.00 0.00 0.00 86 1017.9
20260902045538 78 0.0 0.0 0.00 0.00 0.00 86 1017.8
20260902044518 79 0.0 0.0 0.00 0.00 0.00 86 1017.8
20260902043518 79 0.0 0.0 0.00 0.00 0.00 86 1017.7
20260902042518 80 0.0 0.0 0.00 0.00 0.00 85 1017.8
20260902041518 80 0.0 0.0 0.00 0.00 0.00 85 1017.8
20260902040522 81 0.0 0.0 0.00 0.00 0.00 85 1017.9
20260902035519 81 0.0 0.0 0.00 0.00 0.00 84 1017.9
20260902034519 81 0.0 0.0 0.00 0.00 0.00 84 1017.8
20260902033519 82 0.0 0.0 0.00 0.00 0.00 84 1017.9
20260902032518 82 0.0 0.0 0.00 0.00 0.00 84 1017.8
20260902031519 82 0.0 0.0 0.00 0.00 0.00 83 1017.7
20260902030519 82 0.0 0.0 0.00 0.00 0.00 83 1017.8
20260902025519 82 0.0 0.0 0.00 0.00 0.00 83 1017.7
20260902024518 82 0.0 0.0 0.00 0.00 0.00 83 1017.7
20260902023539 83 0.0 0.0 0.00 0.00 0.00 83 1017.7
20260902022519 83 0.0 0.0 0.00 0.00 0.00 83 1017.8
20260902021519 83 0.0 0.0 0.00 0.00 0.00 82 1017.7
20260902020519 84 0.0 0.0 0.00 0.00 0.00 82 1017.7
20260902015519 84 0.0 0.0 0.00 0.00 0.00 82 1017.6
20260902014519 84 0.0 0.0 0.00 0.00 0.00 81 1017.5
20260902013519 85 0.0 0.0 0.00 0.00 0.00 80 1017.4
20260902012519 85 0.0 0.0 0.00 0.00 0.00 80 1017.4
20260902011519 85 0.0 0.0 0.00 0.00 0.00 80 1017.2
20260902010539 85 0.0 0.0 0.00 0.00 0.00 80 1017.1
20260902005519 85 0.0 0.0 0.00 0.00 0.00 80 1017.0
20260902004519 85 0.0 0.0 0.00 0.00 0.00 80 1017.0
20260902003539 85 0.0 0.0 0.00 0.00 0.00 80 1017.0
20260902002519 85 0.0 0.0 0.00 0.00 0.00 78 1017.0
20260902001519 86 0.0 0.0 0.00 0.00 0.00 77 1016.9
20260902000518 87 0.0 0.0 0.00 0.00 0.00 76 1017.0
20260901235519 88 0.0 0.0 0.00 0.00 0.00 75 1017.1
20260901234538 89 0.0 0.0 0.00 0.00 0.00 74 1017.1
20260901233519 89 0.0 0.0 0.00 0.00 0.00 73 1017.2
20260901232518 90 0.0 0.0 0.00 0.00 0.00 72 1017.3
20260901231519 90 0.0 0.0 0.00 0.00 0.00 70 1017.3
20260901230519 91 0.0 0.0 0.00 0.00 0.00 71 1017.3
20260901225518 91 0.0 0.0 0.00 0.00 0.00 70 1017.3
20260901224518 92 0.0 0.0 0.00 0.00 0.00 69 1017.3
20260901223518 92 0.0 0.0 0.00 0.00 0.00 69 1017.2
20260901222518 92 0.0 0.0 0.00 0.00 0.00 70 1017.1
20260901221519 93 0.0 0.0 0.00 0.00 0.00 69 1017.2
20260901220519 93 0.0 2.0 0.00 0.00 0.00 67 1017.1
20260901215539 93 0.0 0.0 0.00 0.00 0.00 69 1017.1
20260901214518 93 0.0 0.0 0.00 0.00 0.00 69 1017.1
20260901213519 94 0.0 0.0 0.00 0.00 0.00 69 1017.2
20260901212519 94 0.0 0.0 0.00 0.00 0.00 67 1017.1
20260901211518 94 0.0 0.0 0.00 0.00 0.00 67 1017.3
20260901210518 94 0.0 0.0 0.00 0.00 0.00 68 1017.3
20260901205539 94 0.0 0.0 0.00 0.00 0.00 68 1017.4
20260901204559 95 0.0 0.0 0.00 0.00 0.00 68 1017.4